When you browse on this site, cookies collect data to enhance your experience and personalize the content and advertising you see.
Visit our Privacy Policy to learn more. By continuing to use the site, you agree to this use of cookies and data.
  • In Hungary
  • List of Countries
  • For 7 days
  • Water Temperature
  • Weather Map
  • News
  • Weather Widgets
  • user-avatar
    Login

    Hourly Weather Mangotsfield

    Today, 23 August, Friday

    Time Temperature Precipitation Wind Pressure Humidity
    00:00 +15°C° 0 mm 1 mps 763 mmHg 94%
    01:00 +15°C° 0 mm 1 mps 763 mmHg 95%
    02:00 +15°C° 0 mm 1 mps 763 mmHg 95%
    03:00 +15°C° 0 mm 1 mps 763 mmHg 95%
    04:00 +15°C° 0 mm 1 mps 763 mmHg 95%
    05:00 +15°C° 0 mm 1 mps 763 mmHg 94%
    06:00 +15°C° 0 mm 1 mps 763 mmHg 93%
    07:00 +18°C° 0 mm 1 mps 763 mmHg 88%
    08:00 +19°C° 0 mm 1 mps 763 mmHg 82%
    09:00 +19°C° 0 mm 2 mps 763 mmHg 76%
    10:00 +21°C° 0 mm 2 mps 763 mmHg 71%
    11:00 +23°C° 0 mm 2 mps 762 mmHg 66%
    12:00 +24°C° 0 mm 2 mps 762 mmHg 60%
    13:00 +25°C° 0 mm 2 mps 762 mmHg 58%
    14:00 +25°C° 0 mm 2 mps 762 mmHg 56%
    15:00 +26°C° 0 mm 3 mps 762 mmHg 54%
    16:00 +25°C° 0 mm 3 mps 761 mmHg 58%
    17:00 +22°C° 0 mm 3 mps 761 mmHg 62%
    18:00 +21°C° 0 mm 2 mps 760 mmHg 66%
    19:00 +20°C° 0 mm 2 mps 760 mmHg 70%
    20:00 +18°C° 0 mm 2 mps 760 mmHg 73%
    21:00 +16°C° 0 mm 1 mps 760 mmHg 77%
    22:00 +16°C° 0 mm 1 mps 760 mmHg 77%
    23:00 +15°C° 0 mm 1 mps 760 mmHg 77%

    Tomorrow, 24 August, Saturday

    Time Temperature Precipitation Wind Pressure Humidity
    00:00 +15°C° 0 mm 1 mps 760 mmHg 76%
    01:00 +15°C° 0 mm 1 mps 759 mmHg 75%
    02:00 +14°C° 0 mm 1 mps 759 mmHg 74%
    03:00 +14°C° 0 mm 1 mps 759 mmHg 72%
    04:00 +14°C° 0 mm 1 mps 759 mmHg 71%
    05:00 +15°C° 0 mm 1 mps 758 mmHg 70%
    06:00 +15°C° 0 mm 1 mps 758 mmHg 68%
    07:00 +17°C° 0 mm 2 mps 758 mmHg 66%
    08:00 +19°C° 0 mm 2 mps 758 mmHg 64%
    09:00 +21°C° 0 mm 3 mps 758 mmHg 61%
    10:00 +22°C° 0 mm 3 mps 758 mmHg 59%
    11:00 +25°C° 0 mm 4 mps 758 mmHg 57%
    12:00 +27°C° 0 mm 4 mps 757 mmHg 55%
    13:00 +27°C° 0 mm 4 mps 757 mmHg 54%
    14:00 +27°C° 0 mm 5 mps 757 mmHg 53%
    15:00 +28°C° 0 mm 5 mps 757 mmHg 51%
    16:00 +26°C° 0 mm 4 mps 757 mmHg 57%
    17:00 +25°C° 0 mm 3 mps 756 mmHg 62%
    18:00 +24°C° 0 mm 3 mps 756 mmHg 67%
    19:00 +21°C° 0 mm 3 mps 756 mmHg 70%
    20:00 +20°C° 0 mm 2 mps 756 mmHg 74%
    21:00 +18°C° 0 mm 2 mps 756 mmHg 77%
    22:00 +18°C° 0 mm 2 mps 756 mmHg 79%
    23:00 +17°C° 0 mm 2 mps 756 mmHg 80%

    Day after tomorrow, 25 August, Sunday

    Time Temperature Precipitation Wind Pressure Humidity
    00:00 +18°C° 0 mm 1 mps 756 mmHg 82%
    01:00 +18°C° 0 mm 1 mps 756 mmHg 82%
    02:00 +18°C° 0 mm 1 mps 756 mmHg 83%
    03:00 +18°C° 0 mm 1 mps 756 mmHg 84%
    04:00 +18°C° 0 mm 1 mps 756 mmHg 84%
    05:00 +18°C° 0 mm 1 mps 755 mmHg 84%
    06:00 +18°C° 0 mm 1 mps 755 mmHg 84%
    07:00 +19°C° 0 mm 1 mps 756 mmHg 79%
    08:00 +21°C° 0 mm 1 mps 756 mmHg 73%
    09:00 +23°C° 0 mm 1 mps 756 mmHg 67%
    10:00 +24°C° 0 mm 2 mps 757 mmHg 63%
    11:00 +26°C° 0 mm 2 mps 757 mmHg 60%
    12:00 +27°C° 0 mm 2 mps 757 mmHg 56%
    13:00 +27°C° 0 mm 2 mps 757 mmHg 56%
    14:00 +27°C° 0 mm 2 mps 757 mmHg 57%
    15:00 +27°C° 0 mm 3 mps 757 mmHg 57%
    16:00 +26°C° 0 mm 3 mps 757 mmHg 63%
    17:00 +25°C° 0 mm 3 mps 757 mmHg 69%
    18:00 +22°C° 0 mm 3 mps 757 mmHg 76%
    19:00 +21°C° 0 mm 3 mps 757 mmHg 80%
    20:00 +19°C° 0 mm 2 mps 757 mmHg 85%
    21:00 +17°C° 0 mm 2 mps 758 mmHg 90%
    22:00 +17°C° 0 mm 2 mps 758 mmHg 90%
    23:00 +16°C° 0 mm 1 mps 757 mmHg 90%

    26 August, Monday

    Time Temperature Precipitation Wind Pressure Humidity
    00:00 +16°C° 0 mm 1 mps 757 mmHg 90%
    01:00 +16°C° 0 mm 1 mps 757 mmHg 91%
    02:00 +16°C° 0 mm 1 mps 757 mmHg 91%
    03:00 +15°C° 0 mm 1 mps 757 mmHg 92%
    04:00 +15°C° 0 mm 1 mps 757 mmHg 92%
    05:00 +16°C° 0 mm 1 mps 757 mmHg 92%
    06:00 +16°C° 0 mm 1 mps 757 mmHg 93%
    07:00 +19°C° 0 mm 1 mps 757 mmHg 87%
    08:00 +20°C° 0 mm 1 mps 757 mmHg 80%
    09:00 +22°C° 0 mm 1 mps 757 mmHg 74%
    10:00 +23°C° 0 mm 1 mps 757 mmHg 69%
    11:00 +25°C° 0 mm 1 mps 757 mmHg 64%
    12:00 +26°C° 0 mm 2 mps 757 mmHg 59%
    13:00 +26°C° 0 mm 2 mps 757 mmHg 58%
    14:00 +27°C° 0 mm 2 mps 757 mmHg 57%
    15:00 +27°C° 0 mm 2 mps 756 mmHg 56%
    16:00 +26°C° 0 mm 2 mps 756 mmHg 61%
    17:00 +25°C° 0 mm 2 mps 756 mmHg 67%
    18:00 +22°C° 0 mm 3 mps 756 mmHg 72%
    19:00 +21°C° 0 mm 2 mps 756 mmHg 74%
    20:00 +20°C° 0 mm 2 mps 756 mmHg 75%
    21:00 +20°C° 0 mm 1 mps 756 mmHg 77%
    22:00 +19°C° 0 mm 1 mps 756 mmHg 78%
    23:00 +19°C° 0 mm 1 mps 756 mmHg 80%

    27 August, Tuesday

    Time Temperature Precipitation Wind Pressure Humidity
    00:00 +18°C° 0 mm 1 mps 755 mmHg 81%
    01:00 +18°C° 0.1 mm 1 mps 755 mmHg 83%
    02:00 +18°C° 0.1 mm 1 mps 755 mmHg 84%
    03:00 +18°C° 0.1 mm 1 mps 755 mmHg 86%
    04:00 +18°C° 0 mm 1 mps 755 mmHg 87%
    05:00 +17°C° 0 mm 2 mps 754 mmHg 88%
    06:00 +17°C° 0 mm 2 mps 754 mmHg 89%
    07:00 +18°C° 0 mm 2 mps 754 mmHg 84%
    08:00 +20°C° 0 mm 2 mps 754 mmHg 80%
    09:00 +21°C° 0 mm 2 mps 754 mmHg 76%
    10:00 +23°C° 0 mm 2 mps 754 mmHg 72%
    11:00 +24°C° 0 mm 3 mps 754 mmHg 68%
    12:00 +25°C° 0 mm 3 mps 754 mmHg 64%
    13:00 +25°C° 0 mm 4 mps 754 mmHg 65%
    14:00 +25°C° 0 mm 4 mps 754 mmHg 65%
    15:00 +25°C° 0 mm 5 mps 753 mmHg 65%
    16:00 +22°C° 0.1 mm 5 mps 754 mmHg 69%
    17:00 +21°C° 0.1 mm 5 mps 754 mmHg 73%
    18:00 +19°C° 0.1 mm 6 mps 754 mmHg 77%
    19:00 +17°C° 0 mm 5 mps 754 mmHg 79%
    20:00 +17°C° 0 mm 5 mps 754 mmHg 82%
    21:00 +17°C° 0 mm 4 mps 755 mmHg 84%
    22:00 +17°C° 0 mm 4 mps 755 mmHg 85%
    23:00 +15°C° 0 mm 4 mps 755 mmHg 86%

    28 August, Wednesday

    Time Temperature Precipitation Wind Pressure Humidity
    00:00 +15°C° 0 mm 4 mps 755 mmHg 87%
    01:00 +16°C° 0 mm 3 mps 755 mmHg 89%
    02:00 +14°C° 0 mm 3 mps 755 mmHg 92%
    03:00 +14°C° 0 mm 3 mps 755 mmHg 94%
    04:00 +14°C° 0 mm 3 mps 755 mmHg 93%
    05:00 +14°C° 0 mm 3 mps 755 mmHg 93%
    06:00 +14°C° 0 mm 4 mps 755 mmHg 93%
    07:00 +15°C° 0 mm 4 mps 755 mmHg 90%
    08:00 +16°C° 0 mm 5 mps 755 mmHg 88%
    09:00 +17°C° 0 mm 5 mps 756 mmHg 86%
    10:00 +19°C° 0.2 mm 6 mps 756 mmHg 80%
    11:00 +20°C° 0.2 mm 6 mps 756 mmHg 73%
    12:00 +21°C° 0.2 mm 7 mps 756 mmHg 67%
    13:00 +20°C° 0 mm 7 mps 756 mmHg 65%
    14:00 +20°C° 0 mm 7 mps 756 mmHg 63%
    15:00 +19°C° 0 mm 6 mps 757 mmHg 61%
    16:00 +17°C° 0 mm 6 mps 757 mmHg 64%
    17:00 +16°C° 0 mm 5 mps 757 mmHg 66%
    18:00 +15°C° 0 mm 5 mps 758 mmHg 68%
    19:00 +14°C° 0 mm 4 mps 758 mmHg 72%
    20:00 +13°C° 0 mm 3 mps 758 mmHg 77%
    21:00 +11°C° 0 mm 3 mps 759 mmHg 82%
    22:00 +11°C° 0 mm 3 mps 759 mmHg 83%
    23:00 +12°C° 0 mm 2 mps 759 mmHg 85%
    Show more